Date String (YYYY-MM-DD hh:mm:ss) UTC,Instrument flags,Ambient pressure (hPa),Sample flow (lpm),Bypass flow (lpm),Sample temperature (°C),Ambient temperature (°C),ASC tube jacket temperature (°C),LED temperature (°C),Box temperature (°C),Sample RH (%),Span deviation,Mass concentration (μg/m³),Mass concentration (μg/m³),Mass concentration (μg/m³)
DateTimeUTC,F1_M11,P_M11,Q1_M11,Q2_M11,T1_M11,T2_M11,T3_M11,T4_M11,T5_M11,U1_M11,ZSPAN_M11,X0_M11,X2_M11,X1_M11
2023-02-11 18:00:00,,0825.6,5.01,0.00,23.8,22.6,00.0,32.5,25.7,10.6,0000.0,0013.71,0006.28,0005.42
2023-02-11 18:01:00,,0825.6,4.99,0.00,23.8,22.7,00.0,32.5,25.7,10.7,0000.0,0013.88,0006.31,0005.44
2023-02-11 18:02:00,,0825.6,4.99,0.00,23.8,22.7,00.0,32.5,25.7,10.6,0000.0,0014.24,0006.34,0005.46
2023-02-11 18:03:00,,0825.5,5.02,0.00,23.8,22.7,00.0,32.5,25.7,10.5,0000.0,0014.67,0006.36,0005.46
2023-02-11 18:04:00,,0825.5,4.99,0.00,23.9,22.7,00.0,32.6,25.7,10.4,0000.0,0014.80,0006.46,0005.47
2023-02-11 18:05:00,,0825.5,4.96,0.00,23.9,22.7,00.0,32.6,25.7,10.3,0000.0,0014.64,0006.50,0005.48
2023-02-11 18:06:00,,0825.4,4.95,0.00,23.9,22.7,00.0,32.6,25.8,10.6,0000.0,0015.13,0006.58,0005.54
2023-02-11 18:07:00,,0825.4,4.98,0.00,23.9,22.7,00.0,32.6,25.8,10.5,0000.0,0015.45,0006.69,0005.60
2023-02-11 18:08:00,,0825.4,5.01,0.00,23.9,22.7,00.0,32.6,25.8,10.4,0000.0,0014.41,0006.69,0005.62
2023-02-11 18:09:00,,0825.5,5.03,0.00,23.9,22.7,00.0,32.6,25.9,10.4,0000.0,0014.22,0006.67,0005.62
2023-02-11 18:10:00,,0825.4,5.01,0.00,23.9,22.7,00.0,32.6,25.8,10.4,0000.0,0014.00,0006.64,0005.60
2023-02-11 18:11:00,,0825.4,5.02,0.00,23.9,22.8,00.0,32.6,25.8,10.5,0000.0,0013.54,0006.61,0005.58
2023-02-11 18:12:00,,0825.4,4.94,0.00,23.9,22.8,00.0,32.6,25.9,10.5,0000.0,0014.05,0006.63,0005.61
2023-02-11 18:13:00,,0825.4,4.98,0.00,23.9,22.8,00.0,32.6,25.9,10.5,0000.0,0015.07,0006.71,0005.65
2023-02-11 18:14:00,,0825.4,5.00,0.00,24.0,22.8,00.0,32.7,25.9,10.5,0000.0,0015.00,0006.80,0005.73
2023-02-11 18:15:00,,0825.4,5.03,0.00,24.0,22.8,00.0,32.7,25.9,10.5,0000.0,0014.63,0006.78,0005.76
2023-02-11 18:16:00,,0825.3,5.00,0.00,24.0,22.8,00.0,32.7,25.9,10.4,0000.0,0014.48,0006.83,0005.81
2023-02-11 18:17:00,,0825.3,4.97,0.00,24.0,22.8,00.0,32.7,25.9,10.5,0000.0,0014.35,0006.86,0005.82
2023-02-11 18:18:00,,0825.3,5.01,0.00,24.0,22.8,00.0,32.7,25.9,10.4,0000.0,0014.61,0006.82,0005.82
2023-02-11 18:19:00,,0825.3,5.03,0.00,24.0,22.8,00.0,32.7,25.9,10.3,0000.0,0014.82,0006.91,0005.87
2023-02-11 18:20:00,,0825.3,4.97,0.00,24.0,22.9,00.0,32.7,25.9,10.5,0000.0,0016.20,0007.06,0005.93
2023-02-11 18:21:00,,0825.3,5.00,0.00,24.0,22.9,00.0,32.7,26.0,10.5,0000.0,0017.26,0007.12,0006.00
2023-02-11 18:22:00,,0825.3,4.99,0.00,24.0,22.9,00.0,32.7,26.0,10.5,0000.0,0018.04,0007.22,0006.06
2023-02-11 18:23:00,,0825.3,5.01,0.00,24.1,22.9,00.0,32.8,26.0,10.6,0000.0,0017.77,0007.29,0006.11
2023-02-11 18:24:00,,0825.3,4.97,0.00,24.1,22.9,00.0,32.8,26.0,10.5,0000.0,0017.34,0007.35,0006.18
2023-02-11 18:25:00,,0825.3,5.00,0.00,24.1,22.9,00.0,32.8,26.0,10.3,0000.0,0018.48,0007.39,0006.24
2023-02-11 18:26:00,,0825.2,4.99,0.00,24.1,22.9,00.0,32.8,26.0,10.4,0000.0,0018.64,0007.48,0006.30
2023-02-11 18:27:00,,0825.2,5.03,0.00,24.1,23.0,00.0,32.8,26.0,10.5,0000.0,0018.83,0007.56,0006.38
2023-02-11 18:28:00,,0825.2,5.03,0.00,24.1,23.0,00.0,32.8,26.0,10.6,0000.0,0018.82,0007.60,0006.46
2023-02-11 18:29:00,,0825.2,5.00,0.00,24.1,23.0,00.0,32.8,26.0,10.4,0000.0,0018.43,0007.69,0006.55
2023-02-11 18:30:00,,0825.2,4.97,0.00,24.1,23.0,00.0,32.8,26.0,10.6,0000.0,0018.99,0007.75,0006.63
2023-02-11 18:31:00,,0825.2,5.01,0.00,24.2,23.0,00.0,32.8,26.0,10.7,0000.0,0018.31,0007.82,0006.73
2023-02-11 18:32:00,,0825.2,5.01,0.00,24.2,23.0,00.0,32.9,26.1,11.4,0000.0,0017.64,0007.94,0006.85
2023-02-11 18:33:00,,0825.1,4.99,0.00,24.2,23.0,00.0,32.9,26.1,11.3,0000.0,0017.66,0008.06,0006.99
2023-02-11 18:34:00,,0825.1,5.03,0.00,24.2,23.0,00.0,32.9,26.1,11.3,0000.0,0017.87,0008.26,0007.13
2023-02-11 18:35:00,,0825.1,5.04,0.00,24.2,23.0,00.0,32.9,26.1,11.1,0000.0,0017.21,0008.38,0007.24
2023-02-11 18:36:00,,0825.0,5.03,0.00,24.2,23.0,00.0,32.9,26.1,11.2,0000.0,0016.59,0008.53,0007.34
2023-02-11 18:37:00,,0825.0,5.03,0.00,24.2,23.1,00.0,32.9,26.1,11.2,0000.0,0016.95,0008.62,0007.44
2023-02-11 18:38:00,,0825.0,4.97,0.00,24.2,23.1,00.0,32.9,26.1,11.3,0000.0,0018.09,0008.75,0007.52
2023-02-11 18:39:00,,0825.0,5.00,0.00,24.2,23.1,00.0,33.0,26.1,11.5,0000.0,0019.07,0008.85,0007.59
2023-02-11 18:40:00,,0825.0,5.04,0.00,24.3,23.1,00.0,33.0,26.2,11.6,0000.0,0019.53,0008.94,0007.68
2023-02-11 18:41:00,,0824.9,4.99,0.00,24.3,23.1,00.0,33.0,26.2,11.4,0000.0,0019.31,0009.02,0007.73
2023-02-11 18:42:00,,0824.9,5.03,0.00,24.3,23.1,00.0,33.0,26.2,11.3,0000.0,0019.25,0009.07,0007.76
2023-02-11 18:43:00,,0824.9,4.96,0.00,24.3,23.2,00.0,33.0,26.2,11.3,0000.0,0019.41,0009.11,0007.78
2023-02-11 18:44:00,,0824.9,5.00,0.00,24.3,23.2,00.0,33.0,26.2,11.1,0000.0,0019.41,0009.10,0007.79
2023-02-11 18:45:00,,0824.9,5.00,0.00,24.3,23.2,00.0,33.0,26.2,11.1,0000.0,0019.17,0009.05,0007.79
2023-02-11 18:46:00,,0824.9,5.00,0.00,24.3,23.2,00.0,33.0,26.3,11.3,0000.0,0019.59,0009.01,0007.82
2023-02-11 18:47:00,,0824.9,5.00,0.00,24.3,23.2,00.0,33.0,26.3,11.4,0000.0,0019.43,0009.06,0007.89
2023-02-11 18:48:00,,0824.9,5.00,0.00,24.3,23.2,00.0,33.1,26.3,11.5,0000.0,0019.42,0009.19,0007.99
2023-02-11 18:49:00,,0824.9,5.02,0.00,24.4,23.2,00.0,33.1,26.3,11.5,0000.0,0019.43,0009.29,0008.08
2023-02-11 18:50:00,,0824.9,5.02,0.00,24.4,23.2,00.0,33.1,26.3,11.5,0000.0,0019.32,0009.41,0008.19
2023-02-11 18:51:00,,0824.8,5.02,0.00,24.4,23.2,00.0,33.1,26.3,11.7,0000.0,0018.96,0009.53,0008.29
2023-02-11 18:52:00,,0824.8,5.01,0.00,24.4,23.3,00.0,33.1,26.3,11.8,0000.0,0019.54,0009.64,0008.39
2023-02-11 18:53:00,,0824.8,5.01,0.00,24.4,23.3,00.0,33.1,26.3,11.6,0000.0,0019.80,0009.76,0008.50
2023-02-11 18:54:00,,0824.7,4.96,0.00,24.4,23.3,00.0,33.1,26.4,11.6,0000.0,0020.52,0009.92,0008.62
2023-02-11 18:55:00,,0824.7,4.97,0.00,24.4,23.3,00.0,33.2,26.4,11.6,0000.0,0021.44,0010.09,0008.72
2023-02-11 18:56:00,,0824.6,5.02,0.00,24.4,23.3,00.0,33.2,26.4,12.0,0000.0,0022.37,0010.21,0008.82
2023-02-11 18:57:00,,0824.7,5.02,0.00,24.5,23.3,00.0,33.2,26.4,11.9,0000.0,0022.91,0010.32,0008.88
2023-02-11 18:58:00,,0824.7,5.00,0.00,24.5,23.3,00.0,33.2,26.4,12.0,0000.0,0023.46,0010.43,0008.89
2023-02-11 18:59:00,,0824.6,5.02,0.00,24.5,23.3,00.0,33.2,26.4,11.7,0000.0,0023.21,0010.40,0008.86
